FW3819 Weather Reports


Display with metric or nautical units.
time (UTC)temp
F
wind
direction
speed
MPH
gust
MPH
rain 1hr
in
rain 24hr
in
rain mn
in
humidity
%
barometer
mb
20260506152459 61 181 2.0 9.0 0.01 0.01 0.01 93 1011.0
20260506151952 61 234 2.0 11.0 0.01 0.01 0.01 93 1010.9
20260506151446 60 92 2.0 11.0 0.01 0.01 0.01 92 1010.9
20260506150944 61 134 2.0 8.0 0.01 0.01 0.01 92 1011.1
20260506150746 61 143 1.0 8.0 0.01 0.01 0.01 93 1011.2
20260506145942 61 82 1.0 5.0 0.01 0.01 0.01 93 1011.0
20260506145443 61 54 2.0 7.0 0.00 0.00 0.00 92 1011.4
20260506144942 61 110 2.0 8.0 0.00 0.00 0.00 92 1011.5
20260506144443 61 178 2.0 9.0 0.00 0.00 0.00 92 1011.6
20260506143940 61 189 2.0 9.0 0.00 0.00 0.00 92 1011.7
20260506143443 60 265 1.0 5.0 0.00 0.00 0.00 92 1011.6
20260506142941 61 77 1.0 4.0 0.00 0.00 0.00 93 1011.5
20260506142439 61 54 1.0 4.0 0.00 0.00 0.00 93 1011.5
20260506141935 61 205 1.0 4.0 0.00 0.00 0.00 92 1011.5
20260506141437 60 153 1.0 4.0 0.00 0.00 0.00 92 1011.6
20260506140937 61 82 1.0 4.0 0.00 0.00 0.00 92 1011.6
20260506140436 61 143 1.0 4.0 0.00 0.00 0.00 92 1011.5
20260506135938 61 65 1.0 5.0 0.00 0.00 0.00 92 1011.4
20260506135431 61 162 1.0 5.0 0.00 0.00 0.00 92 1011.4
20260506134932 61 11 2.0 5.0 0.00 0.00 0.00 91 1011.5
20260506134430 61 92 2.0 5.0 0.00 0.00 0.00 91 1011.7
20260506133931 61 116 2.0 8.0 0.00 0.00 0.00 91 1011.8
20260506133432 61 54 2.0 8.0 0.00 0.00 0.00 90 1011.8
20260506133228 61 89 1.0 5.0 0.00 0.00 0.00 90 1011.9
20260506132430 61 162 1.0 5.0 0.00 0.00 0.00 90 1012.0
20260506131931 62 125 1.0 4.0 0.00 0.00 0.00 90 1011.9
20260506131429 62 116 1.0 4.0 0.00 0.00 0.00 89 1012.2
20260506130932 62 143 1.0 4.0 0.00 0.00 0.00 90 1012.1
20260506130431 62 201 1.0 4.0 0.00 0.00 0.00 90 1012.0
20260506125930 62 11 1.0 3.0 0.00 0.00 0.00 90 1011.7
20260506125430 62 110 1.0 4.0 0.00 0.00 0.00 89 1011.6
20260506125227 61 187 0.0 4.0 0.00 0.00 0.00 89 1011.5
20260506124431 62 73 1.0 3.0 0.00 0.00 0.00 90 1011.2
20260506123930 62 100 1.0 3.0 0.00 0.00 0.00 89 1011.2
20260506123429 62 28 1.0 3.0 0.00 0.00 0.00 88 1011.3
20260506122929 62 73 0.0 3.0 0.00 0.00 0.00 87 1011.4
20260506122430 62 100 0.0 1.0 0.00 0.00 0.00 86 1011.5
20260506121929 62 54 0.0 3.0 0.00 0.00 0.00 84 1011.5
20260506121728 63 54 1.0 3.0 0.00 0.00 0.00 82 1011.6
20260506120930 64 100 1.0 4.0 0.00 0.00 0.00 80 1011.8
20260506120429 64 54 1.0 4.0 0.00 0.00 0.00 78 1011.9
20260506115930 64 113 2.0 8.0 0.00 0.00 0.00 77 1011.9
20260506115432 64 279 2.0 8.0 0.00 0.00 0.00 76 1011.8
20260506114931 65 279 2.0 9.0 0.00 0.00 0.00 74 1011.8
20260506114431 65 143 2.0 9.0 0.00 0.00 0.00 73 1011.8
20260506113929 65 158 2.0 9.0 0.00 0.00 0.00 72 1011.7
20260506113430 66 171 2.0 9.0 0.00 0.00 0.00 71 1011.6
20260506113234 66 160 2.0 8.0 0.00 0.00 0.00 70 1011.6
20260506112429 66 100 2.0 15.0 0.00 0.00 0.00 70 1011.4
20260506111930 66 162 3.0 15.0 0.00 0.00 0.00 69 1011.3
20260506111730 66 174 2.0 11.0 0.00 0.00 0.00 70 1011.2
20260506110929 66 113 2.0 5.0 0.00 0.00 0.00 69 1011.1
20260506110729 66 153 2.0 5.0 0.00 0.00 0.00 69 1011.0
20260506105930 66 135 2.0 12.0 0.00 0.00 0.00 70 1011.1
20260506105431 66 326 2.0 12.0 0.00 0.00 0.00 69 1011.1
20260506104928 66 113 2.0 9.0 0.00 0.00 0.00 69 1011.1
20260506104430 66 116 2.0 7.0 0.00 0.00 0.00 70 1010.9
20260506104226 66 171 2.0 5.0 0.00 0.00 0.00 70 1010.9
20260506103429 65 168 2.0 5.0 0.00 0.00 0.00 69 1010.8
20260506102931 66 171 2.0 7.0 0.00 0.00 0.00 70 1010.9
20260506102429 66 82 2.0 11.0 0.00 0.00 0.00 69 1010.9
20260506101930 66 143 2.0 11.0 0.00 0.00 0.00 69 1010.8
20260506101430 66 82 2.0 15.0 0.00 0.00 0.00 70 1010.8
20260506100931 66 205 2.0 15.0 0.00 0.00 0.00 69 1010.8
20260506100429 66 188 2.0 15.0 0.00 0.00 0.00 68 1010.9
20260506095929 67 89 2.0 9.0 0.00 0.00 0.00 67 1010.7
20260506095428 67 136 1.0 5.0 0.00 0.00 0.00 66 1010.8
20260506094930 67 171 2.0 8.0 0.00 0.00 0.00 66 1010.9
20260506094427 67 100 2.0 11.0 0.00 0.00 0.00 66 1010.9
20260506093921 67 153 2.0 11.0 0.00 0.00 0.00 66 1010.9
20260506093414 67 158 2.0 8.0 0.00 0.00 0.00 66 1011.0
20260506093008 67 220 2.0 9.0 0.00 0.00 0.00 66 1010.9
20260506092948 67 127 2.0 9.0 0.00 0.00 0.00 66 1011.0
20260506091904 67 125 2.0 8.0 0.00 0.00 0.00 65 1010.9
20260506091405 67 110 2.0 5.0 0.00 0.00 0.00 65 1010.9
20260506090903 67 153 1.0 8.0 0.00 0.00 0.00 65 1010.9
20260506090403 67 129 1.0 8.0 0.00 0.00 0.00 65 1010.9
20260506090152 67 289 2.0 11.0 0.00 0.00 0.00 65 1011.0
20260506085402 67 54 2.0 11.0 0.00 0.00 0.00 65 1011.1
20260506084902 67 215 2.0 11.0 0.00 0.00 0.00 65 1011.1
20260506084401 67 182 2.0 5.0 0.00 0.00 0.00 64 1011.2
20260506083901 67 188 2.0 9.0 0.00 0.00 0.00 64 1011.1
20260506083402 67 125 2.0 9.0 0.00 0.00 0.00 64 1011.2
20260506082901 67 175 2.0 9.0 0.00 0.00 0.00 64 1011.0
20260506082401 68 166 2.0 8.0 0.00 0.00 0.00 64 1011.0
20260506081904 68 246 2.0 8.0 0.00 0.00 0.00 63 1011.1
20260506081403 68 134 2.0 7.0 0.00 0.00 0.00 64 1011.1
20260506080902 68 135 2.0 5.0 0.00 0.00 0.00 63 1011.1
20260506080657 68 136 2.0 5.0 0.00 0.00 0.00 63 1011.1
20260506073402 69 171 1.0 5.0 0.00 0.00 0.00 60 1010.9
20260506072901 69 129 1.0 5.0 0.00 0.00 0.00 59 1010.9
20260506072401 70 100 1.0 5.0 0.00 0.00 0.00 58 1011.0
20260506071900 70 117 2.0 11.0 0.00 0.00 0.00 58 1011.0
20260506071402 70 107 2.0 11.0 0.00 0.00 0.00 57 1011.0
20260506070903 70 100 2.0 12.0 0.00 0.00 0.00 57 1011.1
20260506070401 70 116 3.0 12.0 0.00 0.00 0.00 57 1011.1
20260506062437 71 171 3.0 12.0 0.00 0.00 0.00 55 1011.5
20260506061401 71 136 3.0 11.0 0.00 0.00 0.00 54 1011.4
20260506060902 72 154 3.0 8.0 0.00 0.00 0.00 54 1011.5
20260506060402 72 153 3.0 8.0 0.00 0.00 0.00 53 1011.5
20260506050849 72 117 2.0 9.0 0.00 0.00 0.00 52 1011.6
20260506050642 72 47 2.0 8.0 0.00 0.00 0.00 52 1011.7
20260506044848 72 180 2.0 11.0 0.00 0.00 0.00 51 1011.7
20260506044343 72 148 2.0 11.0 0.00 0.00 0.00 51 1011.7
20260506043844 73 100 2.0 11.0 0.00 0.00 0.00 51 1011.6
20260506043344 73 167 2.0 11.0 0.00 0.00 0.00 51 1011.6
20260506042842 73 125 2.0 11.0 0.00 0.00 0.00 51 1011.7
20260506042633 73 25 3.0 12.0 0.00 0.00 0.00 50 1011.8
20260506041843 73 120 3.0 12.0 0.00 0.00 0.00 50 1011.8
20260506041342 73 82 2.0 11.0 0.00 0.00 0.00 50 1011.7
20260506041133 73 120 3.0 12.0 0.00 0.00 0.00 50 1011.6
20260506040338 73 152 3.0 12.0 0.00 0.00 0.00 50 1011.6
20260506035839 73 152 2.0 12.0 0.00 0.00 0.00 50 1011.7
20260506035339 73 136 2.0 12.0 0.00 0.00 0.00 50 1011.7
20260506034841 73 54 3.0 8.0 0.00 0.00 0.00 49 1011.5
20260506034337 73 147 2.0 12.0 0.00 0.00 0.00 49 1011.6
20260506033837 73 178 2.0 12.0 0.00 0.00 0.00 49 1011.5
20260506033629 73 100 2.0 8.0 0.00 0.00 0.00 48 1011.5
20260506032836 73 164 2.0 7.0 0.00 0.00 0.00 48 1011.6
20260506032336 73 129 2.0 12.0 0.00 0.00 0.00 47 1011.6
20260506032135 73 296 2.0 12.0 0.00 0.00 0.00 47 1011.7
20260506031336 73 82 2.0 12.0 0.00 0.00 0.00 46 1011.6
20260506030836 73 162 2.0 12.0 0.00 0.00 0.00 46 1011.6
20260506030338 74 143 2.0 8.0 0.00 0.00 0.00 45 1011.6
20260506025831 74 165 2.0 8.0 0.00 0.00 0.00 44 1011.7
20260506025332 74 135 2.0 14.0 0.00 0.00 0.00 44 1011.5
20260506024831 74 117 2.0 14.0 0.00 0.00 0.00 44 1011.5
20260506024330 74 100 2.0 15.0 0.00 0.00 0.00 43 1011.5
20260506023923 74 112 2.0 12.0 0.00 0.00 0.00 42 1011.5
20260506023905 74 54 3.0 15.0 0.00 0.00 0.00 43 1011.5
20260506022831 74 305 2.0 9.0 0.00 0.00 0.00 42 1011.6
20260506022331 75 149 2.0 11.0 0.00 0.00 0.00 42 1011.6
20260506021831 75 125 3.0 11.0 0.00 0.00 0.00 41 1011.7
20260506021331 75 171 3.0 8.0 0.00 0.00 0.00 41 1011.7
20260506020833 75 168 2.0 7.0 0.00 0.00 0.00 40 1011.7
20260506020332 75 119 3.0 12.0 0.00 0.00 0.00 40 1011.7
20260506015831 75 127 3.0 12.0 0.00 0.00 0.00 39 1011.7
20260506015622 75 188 3.0 12.0 0.00 0.00 0.00 39 1011.7
20260506014830 76 143 2.0 11.0 0.00 0.00 0.00 39 1011.6
20260506014330 76 155 2.0 9.0 0.00 0.00 0.00 38 1011.6
20260506013831 76 191 3.0 15.0 0.00 0.00 0.00 38 1011.5
20260506013332 76 143 3.0 15.0 0.00 0.00 0.00 37 1011.5
20260506012831 76 134 3.0 9.0 0.00 0.00 0.00 37 1011.5
20260506012331 76 125 2.0 7.0 0.00 0.00 0.00 36 1011.4
20260506011830 76 171 2.0 9.0 0.00 0.00 0.00 36 1011.2
20260506011330 76 82 1.0 9.0 0.00 0.00 0.00 35 1011.2
20260506010829 76 117 1.0 5.0 0.00 0.00 0.00 35 1011.1
20260506010331 77 82 2.0 16.0 0.00 0.00 0.00 34 1011.3
20260506005830 77 171 3.0 16.0 0.00 0.00 0.00 34 1011.2
20260506005329 77 194 3.0 16.0 0.00 0.00 0.00 33 1011.2
20260506004829 77 100 3.0 9.0 0.00 0.00 0.00 33 1011.1
20260506004330 77 155 2.0 8.0 0.00 0.00 0.00 32 1011.0
20260506003829 78 103 2.0 9.0 0.00 0.00 0.00 32 1010.9
20260506003330 78 143 3.0 9.0 0.00 0.00 0.00 31 1010.9
20260506002830 78 168 3.0 12.0 0.00 0.00 0.00 31 1010.9
20260506002628 78 121 3.0 16.0 0.00 0.00 0.00 30 1010.9
20260506002222 78 143 4.0 23.0 0.00 0.00 0.00 29 1010.7
20260506001908 78 132 3.0 23.0 0.00 0.00 0.00 29 1010.8
20260506000831 79 143 5.0 18.0 0.00 0.00 0.00 29 1010.8
20260506000330 79 173 4.0 18.0 0.00 0.00 0.00 29 1010.8
20260505235830 79 92 3.0 11.0 0.00 0.00 0.00 29 1010.7
20260505235330 79 178 3.0 12.0 0.00 0.00 0.00 29 1010.7
20260505234829 79 154 3.0 16.0 0.00 0.00 0.00 29 1010.7
20260505234330 80 172 3.0 16.0 0.00 0.00 0.00 29 1010.5
20260505233830 80 127 2.0 7.0 0.00 0.00 0.00 28 1010.5
20260505233332 80 188 3.0 12.0 0.00 0.00 0.00 28 1010.5
20260505232829 80 152 3.0 15.0 0.00 0.00 0.00 28 1010.4
20260505232330 81 168 3.0 15.0 0.00 0.00 0.00 27 1010.3
20260505232128 81 129 4.0 15.0 0.00 0.00 0.00 27 1010.5
20260505231332 81 164 4.0 15.0 0.00 0.00 0.00 26 1010.5
20260505230830 81 201 4.0 18.0 0.00 0.00 0.00 26 1010.6
20260505230330 81 126 6.0 24.0 0.00 0.00 0.00 26 1010.6
20260505225827 82 234 7.0 24.0 0.00 0.00 0.00 25 1010.7
20260505225322 82 143 6.0 23.0 0.00 0.00 0.00 26 1010.6
20260505224815 82 180 5.0 22.0 0.00 0.00 0.00 25 1010.4
20260505224309 81 196 6.0 26.0 0.00 0.00 0.00 25 1010.6
20260505223803 82 160 5.0 26.0 0.00 0.00 0.00 25 1010.6
20260505223303 81 129 5.0 22.0 0.00 0.00 0.00 25 1010.6
20260505222804 82 201 5.0 22.0 0.00 0.00 0.00 25 1010.6
20260505222305 82 211 4.0 19.0 0.00 0.00 0.00 26 1010.5
20260505222100 82 167 5.0 22.0 0.00 0.00 0.00 26 1010.6
20260505221303 83 135 5.0 22.0 0.00 0.00 0.00 26 1010.5
20260505220804 83 86 4.0 15.0 0.00 0.00 0.00 27 1010.5
20260505220557 83 175 5.0 15.0 0.00 0.00 0.00 27 1010.4
20260505215801 83 198 6.0 19.0 0.00 0.00 0.00 27 1010.5
20260505215304 83 225 5.0 19.0 0.00 0.00 0.00 25 1010.5
20260505214802 83 229 4.0 15.0 0.00 0.00 0.00 26 1010.5
20260505214303 83 160 5.0 19.0 0.00 0.00 0.00 26 1010.6
20260505213801 83 188 6.0 19.0 0.00 0.00 0.00 26 1010.5
20260505213359 83 178 7.0 26.0 0.00 0.00 0.00 25 1010.5
20260505213339 83 189 7.0 26.0 0.00 0.00 0.00 25 1010.4
20260505212305 83 127 7.0 23.0 0.00 0.00 0.00 25 1010.4
20260505211802 84 237 6.0 23.0 0.00 0.00 0.00 26 1010.6
20260505211302 83 148 5.0 20.0 0.00 0.00 0.00 26 1010.4
20260505210805 83 187 4.0 16.0 0.00 0.00 0.00 27 1010.3
20260505210602 83 289 4.0 15.0 0.00 0.00 0.00 27 1010.5
20260505205805 84 138 5.0 16.0 0.00 0.00 0.00 26 1010.4
20260505205306 84 129 5.0 22.0 0.00 0.00 0.00 26 1010.6
20260505204802 84 178 5.0 22.0 0.00 0.00 0.00 26 1010.3
20260505204303 85 158 4.0 18.0 0.00 0.00 0.00 27 1010.3
20260505204053 85 234 4.0 18.0 0.00 0.00 0.00 27 1010.3
20260505203303 85 140 4.0 20.0 0.00 0.00 0.00 27 1010.3
20260505202802 85 132 5.0 23.0 0.00 0.00 0.00 28 1010.2
20260505202305 85 113 6.0 23.0 0.00 0.00 0.00 26 1010.2
20260505201802 86 213 5.0 19.0 0.00 0.00 0.00 26 1010.1
20260505201557 87 134 4.0 15.0 0.00 0.00 0.00 26 1010.1
20260505200802 87 143 4.0 20.0 0.00 0.00 0.00 27 1010.2
20260505200305 87 128 4.0 20.0 0.00 0.00 0.00 26 1010.2
20260505195801 87 178 3.0 12.0 0.00 0.00 0.00 27 1010.3
20260505195557 88 188 4.0 15.0 0.00 0.00 0.00 26 1010.3
20260505194803 87 183 4.0 18.0 0.00 0.00 0.00 26 1010.4
20260505194257 86 127 5.0 27.0 0.00 0.00 0.00 26 1010.5
20260505194048 86 152 5.0 27.0 0.00 0.00 0.00 25 1010.6
20260505193245 86 135 5.0 19.0 0.00 0.00 0.00 25 1010.5
20260505192739 85 169 6.0 24.0 0.00 0.00 0.00 26 1010.5
20260505192531 85 172 7.0 24.0 0.00 0.00 0.00 26 1010.6
20260505191733 85 248 7.0 23.0 0.00 0.00 0.00 25 1010.8
20260505191234 86 196 6.0 23.0 0.00 0.00 0.00 26 1010.9
20260505190733 86 191 5.0 20.0 0.00 0.00 0.00 24 1011.0
20260505190235 86 104 5.0 18.0 0.00 0.00 0.00 24 1011.2
20260505185732 87 128 5.0 18.0 0.00 0.00 0.00 24 1011.1
20260505185234 87 105 5.0 23.0 0.00 0.00 0.00 26 1011.3
20260505185033 85 208 6.0 23.0 0.00 0.00 0.00 25 1011.3
20260505184231 86 227 6.0 19.0 0.00 0.00 0.00 25 1011.4
20260505183732 86 184 6.0 19.0 0.00 0.00 0.00 25 1011.5
20260505183233 85 237 5.0 16.0 0.00 0.00 0.00 26 1011.6
20260505182734 86 208 5.0 18.0 0.00 0.00 0.00 26 1011.6
20260505182231 85 173 6.0 22.0 0.00 0.00 0.00 26 1011.7
20260505181730 85 126 6.0 22.0 0.00 0.00 0.00 27 1011.7
20260505181231 85 198 5.0 19.0 0.00 0.00 0.00 28 1011.6
20260505180730 85 158 5.0 18.0 0.00 0.00 0.00 28 1011.8
20260505180232 84 211 5.0 18.0 0.00 0.00 0.00 27 1011.8
20260505175731 85 178 4.0 15.0 0.00 0.00 0.00 29 1011.8
20260505175227 85 131 5.0 20.0 0.00 0.00 0.00 28 1011.9
20260505174721 85 161 5.0 20.0 0.00 0.00 0.00 29 1012.0
20260505174221 84 239 6.0 22.0 0.00 0.00 0.00 29 1012.0
20260505174020 84 171 6.0 22.0 0.00 0.00 0.00 28 1012.2
20260505173223 84 187 5.0 20.0 0.00 0.00 0.00 27 1012.2
20260505172719 84 256 4.0 19.0 0.00 0.00 0.00 28 1012.2
20260505172521 85 181 4.0 20.0 0.00 0.00 0.00 29 1012.2
20260505171720 84 187 5.0 20.0 0.00 0.00 0.00 31 1012.3
20260505171220 83 213 5.0 18.0 0.00 0.00 0.00 29 1012.2
20260505170719 83 208 4.0 15.0 0.00 0.00 0.00 31 1012.3
20260505170220 83 126 3.0 16.0 0.00 0.00 0.00 31 1012.3
20260505170120 82 249 3.0 12.0 0.00 0.00 0.00 37 1012.3
20260505170112 83 162 3.0 16.0 0.00 0.00 0.00 34 1012.3
20260505164721 82 279 4.0 12.0 0.00 0.00 0.00 35 1012.4
20260505164516 83 166 2.0 9.0 0.00 0.00 0.00 35 1012.6
20260505163720 82 353 2.0 9.0 0.00 0.00 0.00 37 1012.5
20260505163221 82 75 2.0 9.0 0.00 0.00 0.00 39 1012.6
20260505162722 82 196 2.0 8.0 0.00 0.00 0.00 38 1012.7
20260505162218 82 95 2.0 8.0 0.00 0.00 0.00 40 1012.8
20260505162018 81 162 2.0 8.0 0.00 0.00 0.00 37 1013.0
20260505161327 81 23 2.0 9.0 0.00 0.00 0.00 40 1013.1
20260505161304 81 181 2.0 8.0 0.00 0.00 0.00 40 1013.1
20260505160512 80 213 2.0 9.0 0.00 0.00 0.00 40 1013.1
20260505153218 79 110 2.0 8.0 0.00 0.00 0.00 39 1013.3